Location: Newark
(7.0858°N, 171.3717°E)
Time: 19:42:08
(UTC+00:00)

Tiros 1 - Pass Details

Date: 02 December 2020
Orbit: 630 x 663 km, 48.4° (Epoch: 18 January)

Event Time Altitude Azimuth Distance (km) Brightness Sun altitude
Rises 01:33:08 0° 264° (W) 2,973 10.8 56.3°
Reaches altitude 10° 01:37:53 10° 306° (NW) 2,066 9.8 55.7°
Maximum altitude 01:38:33 10° 314° (NW) 2,050 9.8 55.6°
Drops below altitude 10° 01:39:12 10° 323° (NW) 2,067 9.7 55.6°
Sets 01:44:00 0° 5° (N) 2,979 10.3 54.9°
